When you browse on this site, cookies collect data to enhance your experience and personalize the content and advertising you see.
Visit our Privacy Policy to learn more. By continuing to use the site, you agree to this use of cookies and data.
  • In United Kingdom
  • List of Countries
  • For 7 days
  • Water Temperature
  • Weather Map
  • Weather Widgets
  • user-avatar
    Login

    Hourly Weather Aberdeen

    Today, 18 August, Sunday

    Time Temperature Precipitation Wind Pressure Humidity
    00:00 +10°C° 0 mm 5 mps 737 mmHg 87%
    01:00 +10°C° 0 mm 5 mps 737 mmHg 87%
    02:00 +10°C° 0 mm 5 mps 737 mmHg 88%
    03:00 +10°C° 0 mm 6 mps 736 mmHg 88%
    04:00 +10°C° 0.2 mm 6 mps 736 mmHg 89%
    05:00 +10°C° 0.2 mm 6 mps 736 mmHg 89%
    06:00 +11°C° 0 mm 7 mps 736 mmHg 91%
    07:00 +11°C° 0.2 mm 7 mps 736 mmHg 90%
    08:00 +11°C° 0.2 mm 8 mps 736 mmHg 89%
    09:00 +12°C° 0.2 mm 8 mps 736 mmHg 88%
    10:00 +12°C° 0.3 mm 8 mps 736 mmHg 87%
    11:00 +13°C° 0.3 mm 9 mps 736 mmHg 85%
    12:00 +13°C° 0.3 mm 9 mps 736 mmHg 83%
    13:00 +15°C° 0.2 mm 9 mps 736 mmHg 81%
    14:00 +15°C° 0.2 mm 9 mps 736 mmHg 79%
    15:00 +15°C° 0.2 mm 9 mps 736 mmHg 77%
    16:00 +15°C° 0.1 mm 8 mps 737 mmHg 78%
    17:00 +15°C° 0.1 mm 7 mps 737 mmHg 79%
    18:00 +14°C° 0.1 mm 7 mps 737 mmHg 80%
    19:00 +13°C° 0 mm 6 mps 738 mmHg 83%
    20:00 +12°C° 0 mm 5 mps 739 mmHg 86%
    21:00 +11°C° 0 mm 4 mps 739 mmHg 88%
    22:00 +10°C° 0 mm 4 mps 740 mmHg 90%
    23:00 +10°C° 0 mm 4 mps 740 mmHg 91%

    Tomorrow, 19 August, Monday

    Time Temperature Precipitation Wind Pressure Humidity
    00:00 +8°C° 0 mm 4 mps 740 mmHg 93%
    01:00 +8°C° 0 mm 4 mps 741 mmHg 93%
    02:00 +8°C° 0 mm 4 mps 741 mmHg 93%
    03:00 +8°C° 0 mm 4 mps 741 mmHg 93%
    04:00 +8°C° 0 mm 4 mps 742 mmHg 92%
    05:00 +10°C° 0 mm 4 mps 742 mmHg 92%
    06:00 +9°C° 0 mm 5 mps 743 mmHg 91%
    07:00 +10°C° 0 mm 5 mps 743 mmHg 86%
    08:00 +11°C° 0 mm 6 mps 744 mmHg 81%
    09:00 +14°C° 0 mm 7 mps 744 mmHg 75%
    10:00 +15°C° 0 mm 7 mps 744 mmHg 72%
    11:00 +15°C° 0 mm 7 mps 745 mmHg 69%
    12:00 +16°C° 0 mm 7 mps 745 mmHg 66%
    13:00 +16°C° 0 mm 7 mps 745 mmHg 66%
    14:00 +16°C° 0 mm 7 mps 746 mmHg 66%
    15:00 +16°C° 0 mm 7 mps 746 mmHg 65%
    16:00 +16°C° 0 mm 6 mps 747 mmHg 68%
    17:00 +15°C° 0 mm 5 mps 747 mmHg 72%
    18:00 +14°C° 0 mm 5 mps 747 mmHg 75%
    19:00 +13°C° 0 mm 4 mps 748 mmHg 79%
    20:00 +12°C° 0 mm 4 mps 748 mmHg 83%
    21:00 +11°C° 0 mm 3 mps 749 mmHg 87%
    22:00 +11°C° 0 mm 3 mps 749 mmHg 88%
    23:00 +10°C° 0 mm 3 mps 750 mmHg 89%

    Day after tomorrow, 20 August, Tuesday

    Time Temperature Precipitation Wind Pressure Humidity
    00:00 +10°C° 0 mm 3 mps 750 mmHg 90%
    01:00 +10°C° 0 mm 2 mps 751 mmHg 89%
    02:00 +10°C° 0 mm 2 mps 751 mmHg 88%
    03:00 +11°C° 0 mm 1 mps 751 mmHg 87%
    04:00 +11°C° 0.1 mm 1 mps 752 mmHg 89%
    05:00 +11°C° 0.1 mm 1 mps 752 mmHg 90%
    06:00 +11°C° 0.1 mm 1 mps 753 mmHg 91%
    07:00 +12°C° 0.2 mm 1 mps 753 mmHg 88%
    08:00 +13°C° 0.2 mm 1 mps 754 mmHg 84%
    09:00 +13°C° 0.2 mm 1 mps 754 mmHg 81%
    10:00 +14°C° 0.2 mm 2 mps 755 mmHg 80%
    11:00 +14°C° 0.2 mm 2 mps 755 mmHg 79%
    12:00 +13°C° 0.2 mm 3 mps 756 mmHg 78%
    13:00 +14°C° 0.1 mm 3 mps 756 mmHg 78%
    14:00 +14°C° 0.1 mm 3 mps 756 mmHg 78%
    15:00 +14°C° 0.1 mm 3 mps 756 mmHg 78%
    16:00 +14°C° 0.1 mm 3 mps 756 mmHg 80%
    17:00 +14°C° 0.1 mm 3 mps 756 mmHg 83%
    18:00 +13°C° 0.1 mm 3 mps 756 mmHg 85%
    19:00 +13°C° 0 mm 2 mps 757 mmHg 88%
    20:00 +12°C° 0 mm 2 mps 757 mmHg 90%
    21:00 +11°C° 0 mm 1 mps 757 mmHg 93%
    22:00 +11°C° 0 mm 1 mps 757 mmHg 92%
    23:00 +12°C° 0 mm 1 mps 757 mmHg 92%

    21 August, Wednesday

    Time Temperature Precipitation Wind Pressure Humidity
    00:00 +12°C° 0 mm 1 mps 757 mmHg 91%
    01:00 +11°C° 0 mm 1 mps 757 mmHg 92%
    02:00 +10°C° 0 mm 2 mps 757 mmHg 93%
    03:00 +9°C° 0 mm 2 mps 756 mmHg 94%
    04:00 +10°C° 0 mm 2 mps 756 mmHg 94%
    05:00 +10°C° 0 mm 2 mps 756 mmHg 95%
    06:00 +10°C° 0 mm 2 mps 756 mmHg 96%
    07:00 +11°C° 0 mm 3 mps 756 mmHg 91%
    08:00 +13°C° 0 mm 3 mps 756 mmHg 87%
    09:00 +14°C° 0 mm 4 mps 756 mmHg 83%
    10:00 +15°C° 0 mm 4 mps 756 mmHg 78%
    11:00 +16°C° 0 mm 5 mps 756 mmHg 73%
    12:00 +17°C° 0 mm 5 mps 756 mmHg 69%
    13:00 +17°C° 0.4 mm 6 mps 755 mmHg 71%
    14:00 +16°C° 0.4 mm 6 mps 755 mmHg 74%
    15:00 +16°C° 0.4 mm 6 mps 755 mmHg 76%
    16:00 +15°C° 0.9 mm 5 mps 755 mmHg 81%
    17:00 +14°C° 0.9 mm 5 mps 755 mmHg 86%
    18:00 +13°C° 0.9 mm 4 mps 754 mmHg 91%
    19:00 +13°C° 0.8 mm 4 mps 754 mmHg 93%
    20:00 +12°C° 0.8 mm 4 mps 754 mmHg 94%
    21:00 +12°C° 0.8 mm 4 mps 754 mmHg 95%
    22:00 +12°C° 0.1 mm 3 mps 754 mmHg 95%
    23:00 +11°C° 0.1 mm 3 mps 754 mmHg 95%

    22 August, Thursday

    Time Temperature Precipitation Wind Pressure Humidity
    00:00 +11°C° 0.1 mm 3 mps 754 mmHg 95%
    01:00 +10°C° 0 mm 3 mps 754 mmHg 95%
    02:00 +10°C° 0 mm 3 mps 754 mmHg 96%
    03:00 +9°C° 0 mm 3 mps 754 mmHg 96%
    04:00 +9°C° 0 mm 3 mps 755 mmHg 96%
    05:00 +9°C° 0 mm 3 mps 755 mmHg 96%
    06:00 +9°C° 0 mm 3 mps 755 mmHg 95%
    07:00 +10°C° 0 mm 3 mps 755 mmHg 91%
    08:00 +12°C° 0 mm 4 mps 756 mmHg 86%
    09:00 +13°C° 0 mm 4 mps 756 mmHg 81%
    10:00 +14°C° 0 mm 4 mps 756 mmHg 77%
    11:00 +15°C° 0 mm 5 mps 756 mmHg 73%
    12:00 +16°C° 0 mm 5 mps 756 mmHg 69%
    13:00 +16°C° 0 mm 5 mps 755 mmHg 69%
    14:00 +16°C° 0 mm 5 mps 755 mmHg 70%
    15:00 +16°C° 0 mm 6 mps 755 mmHg 71%
    16:00 +15°C° 0 mm 5 mps 754 mmHg 74%
    17:00 +14°C° 0 mm 5 mps 754 mmHg 77%
    18:00 +13°C° 0 mm 5 mps 754 mmHg 81%
    19:00 +13°C° 0 mm 5 mps 754 mmHg 82%
    20:00 +13°C° 0 mm 5 mps 754 mmHg 84%
    21:00 +13°C° 0 mm 5 mps 753 mmHg 85%
    22:00 +14°C° 0 mm 5 mps 753 mmHg 86%
    23:00 +14°C° 0 mm 6 mps 753 mmHg 87%

    23 August, Friday

    Time Temperature Precipitation Wind Pressure Humidity
    00:00 +15°C° 0 mm 7 mps 753 mmHg 88%
    01:00 +15°C° 0 mm 7 mps 753 mmHg 89%
    02:00 +15°C° 0 mm 7 mps 752 mmHg 89%
    03:00 +15°C° 0 mm 6 mps 752 mmHg 89%
    04:00 +15°C° 0.1 mm 6 mps 752 mmHg 90%
    05:00 +15°C° 0.1 mm 7 mps 752 mmHg 90%
    06:00 +15°C° 0.1 mm 7 mps 752 mmHg 90%
    07:00 +15°C° 0 mm 7 mps 753 mmHg 89%
    08:00 +15°C° 0 mm 7 mps 753 mmHg 88%
    09:00 +15°C° 0 mm 8 mps 753 mmHg 86%
    10:00 +15°C° 0 mm 8 mps 753 mmHg 85%
    11:00 +15°C° 0 mm 7 mps 754 mmHg 84%
    12:00 +16°C° 0 mm 7 mps 754 mmHg 83%
    13:00 +16°C° 0 mm 7 mps 754 mmHg 82%
    14:00 +17°C° 0 mm 7 mps 754 mmHg 80%
    15:00 +18°C° 0 mm 7 mps 754 mmHg 78%
    16:00 +17°C° 0 mm 6 mps 754 mmHg 80%
    17:00 +17°C° 0 mm 6 mps 754 mmHg 82%
    18:00 +16°C° 0 mm 5 mps 754 mmHg 85%
    19:00 +16°C° 0.1 mm 5 mps 754 mmHg 87%
    20:00 +15°C° 0.1 mm 4 mps 754 mmHg 90%
    21:00 +14°C° 0.1 mm 3 mps 754 mmHg 92%
    22:00 +14°C° 0 mm 3 mps 754 mmHg 93%
    23:00 +14°C° 0 mm 3 mps 754 mmHg 93%
    Show more